カタログに戻る

STARLINK-4799

運用中通信VLEO
NORAD 53860·PAYLOAD·🇺🇸 United States

打ち上げ Sep 19, 2022 から Cape Canaveral Space Force Station

Loading…

次のパス (今後24時間)

TLE

最新Source: CelesTrak SupGP

元期: Sep 14, 2026, 13:50 UTC

1 53860C 22114AU  26257.57687500  .00046369  00000+0  14911-2 0  2574
2 53860  53.1569 146.2389 0001394  95.3491 143.4805 15.31678625    14

AllMySatでSTARLINK-4799をリアルタイム追跡

Download on the App Store